20060722,000021,1296000,33.208442,-123.096502,25.3,18.265,33.060,44.089,1773.82,0.0,0.027,0.117,18.357, NaN, NaN,23.627,   NaN,17.40,1012.55,94.64,17.41,40.2,36.5,9.4,5.5,314.9,347.3,6.4,3.4,NaN, NaN,21.0,242.1,237.3,1153526421,1153526420,2,10.5,000021,000020,242.1,33.208467,-123.096347,10.39,NaN,NaN,18.542, NaN,NaN,NaN, NaN, NaN
20060722,000051,1296031,33.207653,-123.097950,25.1,18.271,33.056,44.090,1428.05,0.0,0.026,0.109,18.360, NaN, NaN,23.622,   NaN,17.41,1012.54,94.55,17.41,42.8,40.9,9.0,4.8,320.3,0.7,6.3,3.7,NaN, NaN,20.0,242.1,236.6,1153526451,1153526450,2,10.5,000051,000050,242.1,33.207685,-123.097805,10.70,NaN,NaN,18.548, NaN,NaN,NaN, NaN, NaN
20060722,000121,1296061,33.206877,-123.099403,25.3,18.287,33.053,44.102,1278.45,0.0,0.027,0.109,18.365, NaN, NaN,23.615,   NaN,17.38,1012.58,94.48,17.38,44.7,45.8,8.1,3.3,327.9,22.8,5.8,4.0,NaN, NaN,21.0,242.3,235.1,1153526481,1153526480,2,10.7,000081,000080,242.3,33.206885,-123.099252,10.57,NaN,NaN,18.564, NaN,NaN,NaN, NaN, NaN
20060722,000151,1296090,33.206072,-123.100845,25.2,18.295,33.054,44.110,1166.08,0.0,0.026,0.105,18.370, NaN, NaN,23.614,   NaN,17.37,1012.55,94.51,17.37,45.8,47.1,7.5,2.7,333.2,31.9,5.4,4.0,NaN, NaN,21.0,242.3,235.3,1153526511,1153526510,2,10.3,000111,000110,242.3,33.206095,-123.100700,10.58,NaN,NaN,18.572, NaN,NaN,NaN, NaN, NaN
20060722,000222,1296122,33.205275,-123.102345,25.0,18.294,33.058,44.114,1148.65,0.0,0.028,0.109,18.369, NaN, NaN,23.617,   NaN,17.35,1012.56,94.57,17.35,45.0,46.2,7.4,2.8,333.2,31.4,5.3,4.0,NaN, NaN,22.0,241.4,235.9,1153526542,1153526541,2,10.7,000142,000141,241.4,33.205283,-123.102208,10.61,NaN,NaN,18.571, NaN,NaN,NaN, NaN, NaN
20060722,000251,1296150,33.204503,-123.103752,25.4,18.291,33.060,44.114,1184.09,0.0,0.027,0.107,18.372, NaN, NaN,23.620,   NaN,17.41,1012.55,94.72,17.41,44.3,44.8,7.4,2.9,332.2,29.7,5.2,3.9,NaN, NaN,23.0,242.2,234.0,1153526571,1153526570,2,10.7,000171,000170,242.2,33.204520,-123.103612,10.48,NaN,NaN,18.568, NaN,NaN,NaN, NaN, NaN
20060722,000321,1296180,33.203730,-123.105217,25.4,18.289,33.060,44.112,1140.56,0.0,0.028,0.109,18.368, NaN, NaN,23.620,   NaN,17.46,1012.57,94.76,17.47,42.6,39.3,8.1,4.0,325.8,12.4,5.6,3.5,NaN, NaN,23.0,241.6,235.6,1153526601,1153526600,2,10.7,000201,000200,241.6,33.203745,-123.105075,10.59,NaN,NaN,18.566, NaN,NaN,NaN, NaN, NaN
20060722,000351,1296211,33.202938,-123.106680,25.3,18.294,33.058,44.114,1125.40,0.0,0.028,0.108,18.360, NaN, NaN,23.617,   NaN,17.42,1012.55,94.72,17.43,39.3,35.0,8.6,5.1,319.2,353.7,5.6,3.2,NaN, NaN,22.0,241.9,238.4,1153526631,1153526630,2,10.6,000231,000230,241.9,33.202955,-123.106533,10.64,NaN,NaN,18.571, NaN,NaN,NaN, NaN, NaN
20060722,000422,1296241,33.202135,-123.108183,25.2,18.280,33.063,44.107,1173.01,0.0,0.027,0.107,18.354, NaN, NaN,23.625,   NaN,17.46,1012.52,94.85,17.46,35.8,33.6,8.9,5.8,313.2,341.4,5.5,3.3,NaN, NaN,22.0,242.1,236.6,1153526662,1153526661,2,10.3,000262,000261,242.1,33.202148,-123.108038,10.40,NaN,NaN,18.557, NaN,NaN,NaN, NaN, NaN
20060722,000452,1296271,33.201357,-123.109652,25.2,18.271,33.064,44.100,1215.97,0.0,0.027,0.108,18.349, NaN, NaN,23.628,   NaN,17.45,1012.53,94.85,17.45,39.9,39.2,9.0,4.9,316.8,356.6,6.0,3.7,NaN, NaN,23.0,242.4,239.2,1153526692,1153526691,2,10.4,000292,000291,242.4,33.201375,-123.109505,10.53,NaN,NaN,18.548, NaN,NaN,NaN, NaN, NaN
20060722,000521,1296300,33.200610,-123.111067,25.1,18.269,33.066,44.101,1157.89,0.0,0.027,0.107,18.345, NaN, NaN,23.630,   NaN,17.50,1012.57,94.91,17.50,41.5,40.9,8.7,4.3,320.8,8.4,5.9,3.6,NaN, NaN,22.0,241.4,236.4,1153526721,1153526720,2,10.4,000321,000320,241.4,33.200628,-123.110925,10.49,NaN,NaN,18.546, NaN,NaN,NaN, NaN, NaN
20060722,000551,1296330,33.199827,-123.112520,25.1,18.274,33.068,44.107,1145.37,0.0,0.027,0.107,18.339, NaN, NaN,23.630,   NaN,17.46,1012.56,94.73,17.46,37.2,34.8,9.1,5.5,313.2,347.1,5.8,3.4,NaN, NaN,21.0,241.9,236.0,1153526751,1153526750,2,10.6,000351,000350,241.9,33.199838,-123.112378,10.42,NaN,NaN,18.551, NaN,NaN,NaN, NaN, NaN
20060722,000621,1296360,33.199055,-123.113975,25.2,18.257,33.071,44.096,1184.20,0.0,0.026,0.105,18.336, NaN, NaN,23.637,   NaN,17.43,1012.53,94.77,17.43,38.2,35.7,9.3,5.3,312.7,349.1,6.1,3.4,NaN, NaN,22.0,241.8,233.5,1153526781,1153526780,2,10.5,000381,000380,241.8,33.199068,-123.113833,10.19,NaN,NaN,18.534, NaN,NaN,NaN, NaN, NaN
20060722,000651,1296391,33.198290,-123.115435,25.3,18.256,33.071,44.094,1182.64,0.0,0.027,0.107,18.326, NaN, NaN,23.637,   NaN,17.46,1012.52,94.83,17.46,43.0,43.6,8.3,3.7,324.7,16.9,5.8,3.8,NaN, NaN,22.0,242.3,243.1,1153526811,1153526810,2,10.5,000411,000410,242.3,33.198288,-123.115282,10.44,NaN,NaN,18.533, NaN,NaN,NaN, NaN, NaN
20060722,000721,1296420,33.197490,-123.116890,25.4,18.249,33.074,44.090,1216.73,0.0,0.025,0.104,18.319, NaN, NaN,23.641,   NaN,17.46,1012.58,94.86,17.46,45.6,49.2,7.5,3.1,333.0,25.6,5.4,4.1,NaN, NaN,21.0,241.8,242.8,1153526841,1153526840,2,10.3,000441,000440,241.8,33.197502,-123.116740,10.51,NaN,NaN,18.526, NaN,NaN,NaN, NaN, NaN
20060722,000751,1296450,33.196703,-123.118343,25.1,18.237,33.077,44.082,1162.78,0.0,0.027,0.107,18.315, NaN, NaN,23.646,   NaN,17.42,1012.56,94.78,17.42,41.6,41.9,8.2,4.3,324.0,6.8,5.6,3.7,NaN, NaN,21.0,242.3,240.4,1153526871,1153526870,2,10.6,000471,000470,242.3,33.196708,-123.118193,10.42,NaN,NaN,18.514, NaN,NaN,NaN, NaN, NaN
20060722,000821,1296480,33.195942,-123.119762,25.0,18.242,33.074,44.084,1133.60,0.0,0.027,0.106,18.317, NaN, NaN,23.643,   NaN,17.40,1012.51,94.69,17.40,39.6,35.9,8.4,4.7,320.4,0.4,5.5,3.3,NaN, NaN,21.0,241.6,237.6,1153526901,1153526900,2,10.5,000501,000500,241.6,33.195928,-123.119660,10.43,NaN,NaN,18.519, NaN,NaN,NaN, NaN, NaN
20060722,000851,1296510,33.195123,-123.121275,25.0,18.248,33.074,44.089,1183.80,0.0,0.025,0.103,18.320, NaN, NaN,23.641,   NaN,17.37,1012.56,94.78,17.37,41.5,39.7,7.6,3.8,329.0,17.3,5.1,3.6,NaN, NaN,22.0,240.9,233.8,1153526931,1153526930,2,10.4,000531,000530,240.9,33.195138,-123.121128,10.50,NaN,NaN,18.525, NaN,NaN,NaN, NaN, NaN
20060722,000921,1296541,33.194343,-123.122753,25.1,18.250,33.078,44.097,1293.55,0.0,0.025,0.105,18.322, NaN, NaN,23.644,   NaN,17.39,1012.52,94.86,17.39,45.0,44.4,6.9,3.0,338.0,28.9,4.9,3.9,NaN, NaN,22.0,242.3,240.6,1153526961,1153526960,2,10.4,000561,000560,242.3,33.194350,-123.122597,10.58,NaN,NaN,18.527, NaN,NaN,NaN, NaN, NaN
20060722,000951,1296571,33.193557,-123.124225,25.2,18.250,33.077,44.095,1444.98,0.0,0.026,0.109,18.327, NaN, NaN,23.643,   NaN,17.42,1012.47,95.04,17.42,47.6,47.4,6.8,2.7,341.3,32.9,5.1,4.1,NaN, NaN,22.0,241.6,236.0,1153526990,1153526990,2,10.7,000591,000590,241.6,33.193558,-123.124065,10.51,NaN,NaN,18.527, NaN,NaN,NaN, NaN, NaN
20060722,001021,1296600,33.192747,-123.125698,25.2,18.261,33.074,44.102,1530.82,0.0,0.027,0.113,18.334, NaN, NaN,23.638,   NaN,17.40,1012.45,94.93,17.39,45.9,45.8,7.3,3.0,335.7,28.4,5.3,4.1,NaN, NaN,23.0,241.8,237.9,1153527021,1153527020,2,10.6,000621,000620,241.8,33.192763,-123.125543,10.50,NaN,NaN,18.538, NaN,NaN,NaN, NaN, NaN
20060722,001052,1296632,33.191933,-123.127218,25.1,18.265,33.077,44.110,1262.07,0.0,0.025,0.104,18.342, NaN, NaN,23.639,   NaN,17.41,1012.53,94.81,17.40,43.7,41.7,8.2,4.1,327.6,10.5,5.7,3.7,NaN, NaN,24.0,242.1,236.2,1153527051,1153527051,2,10.6,000652,000651,242.1,33.191933,-123.127063,10.46,NaN,NaN,18.542, NaN,NaN,NaN, NaN, NaN
20060722,001121,1296660,33.191162,-123.128648,25.3,18.287,33.076,44.130,1218.19,0.0,0.025,0.104,18.354, NaN, NaN,23.633,   NaN,17.33,1012.46,94.69,17.34,42.8,41.5,8.0,4.1,328.1,12.9,5.5,3.7,NaN, NaN,24.0,241.4,230.4,1153527081,1153527080,2,10.7,000681,000680,241.4,33.191168,-123.128488,10.40,NaN,NaN,18.564, NaN,NaN,NaN, NaN, NaN
20060722,001151,1296690,33.190370,-123.130138,25.2,18.315,33.075,44.156,1238.30,0.0,0.025,0.104,18.369, NaN, NaN,23.626,   NaN,17.42,1012.38,94.83,17.43,46.4,46.9,7.3,3.1,337.1,27.3,5.3,4.0,NaN, NaN,25.0,244.1,242.1,1153527111,1153527110,2,10.5,000711,000710,244.1,33.190380,-123.129968,10.42,NaN,NaN,18.592, NaN,NaN,NaN, NaN, NaN
20060722,001221,1296721,33.189623,-123.131632,25.2,18.328,33.082,44.176,1281.31,0.0,0.025,0.105,18.381, NaN, NaN,23.628,   NaN,17.46,1012.50,94.85,17.45,46.9,47.9,7.6,3.2,336.4,27.2,5.6,4.1,NaN, NaN,25.0,243.9,242.0,1153527141,1153527140,2,10.5,000741,000740,243.9,33.189642,-123.131465,10.31,NaN,NaN,18.605, NaN,NaN,NaN, NaN, NaN
20060722,001251,1296751,33.188867,-123.133117,25.2,18.342,33.081,44.189,1418.66,0.0,0.025,0.107,18.389, NaN, NaN,23.623,   NaN,17.41,1012.45,94.72,17.41,45.2,44.6,7.8,3.4,333.0,25.4,5.6,3.9,NaN, NaN,24.0,244.1,240.1,1153527171,1153527170,2,10.6,000771,000770,244.1,33.188895,-123.132958,10.60,NaN,NaN,18.619, NaN,NaN,NaN, NaN, NaN
20060722,001321,1296780,33.188108,-123.134615,25.3,18.346,33.086,44.198,2061.90,0.0,0.024,0.115,18.393, NaN, NaN,23.626,   NaN,17.50,1012.47,94.83,17.49,42.6,39.5,8.3,4.3,326.7,10.5,5.7,3.5,NaN, NaN,22.0,244.1,238.5,1153527201,1153527200,2,10.5,000801,000800,244.1,33.188140,-123.134453,10.41,NaN,NaN,18.623, NaN,NaN,NaN, NaN, NaN
20060722,001351,1296810,33.187370,-123.136108,25.3,18.341,33.089,44.197,2882.68,0.0,0.025,0.132,18.391, NaN, NaN,23.630,   NaN,17.48,1012.48,94.54,17.48,39.6,35.5,9.0,5.1,319.6,356.9,6.0,3.3,NaN, NaN,21.0,243.9,240.5,1153527231,1153527230,2,10.5,000831,000830,243.9,33.187398,-123.135943,10.34,NaN,NaN,18.618, NaN,NaN,NaN, NaN, NaN
20060722,001421,1296840,33.186612,-123.137578,25.2,18.321,33.095,44.185,1595.41,0.0,0.021,0.104,18.393, NaN, NaN,23.639,   NaN,17.47,1012.48,94.40,17.46,43.2,39.1,8.6,4.4,325.7,8.9,6.0,3.5,NaN, NaN,22.0,244.4,234.8,1153527261,1153527260,2,10.6,000861,000860,244.4,33.186637,-123.137422,10.38,NaN,NaN,18.598, NaN,NaN,NaN, NaN, NaN
20060722,001451,1296870,33.185868,-123.139062,25.3,18.308,33.098,44.175,1413.12,0.0,0.020,0.099,18.392, NaN, NaN,23.645,   NaN,17.43,1012.46,94.37,17.42,43.9,42.6,8.0,3.9,330.4,17.6,5.6,3.7,NaN, NaN,22.0,243.9,234.0,1153527291,1153527290,2,10.3,000891,000890,244.4,33.185903,-123.138910,10.58,NaN,NaN,18.585, NaN,NaN,NaN, NaN, NaN
20060722,001521,1296901,33.185135,-123.140547,25.3,18.325,33.092,44.185,1345.86,0.0,0.021,0.100,18.395, NaN, NaN,23.636,   NaN,17.45,1012.47,94.39,17.46,41.0,40.1,8.5,4.5,324.0,7.2,5.7,3.5,NaN, NaN,21.0,242.5,239.0,1153527321,1153527320,2,10.5,000921,000920,242.3,33.185157,-123.140387,10.45,NaN,NaN,18.602, NaN,NaN,NaN, NaN, NaN
20060722,001551,1296930,33.184368,-123.142022,25.3,18.331,33.093,44.193,1224.90,0.0,0.023,0.100,18.403, NaN, NaN,23.635,   NaN,17.40,1012.53,94.28,17.41,41.4,38.1,8.8,4.6,322.0,5.3,6.0,3.4,NaN, NaN,22.0,244.1,236.2,1153527351,1153527350,2,10.3,000951,000950,244.1,33.184393,-123.141865,10.33,NaN,NaN,18.608, NaN,NaN,NaN, NaN, NaN
20060722,001621,1296960,33.183623,-123.143517,25.0,18.339,33.093,44.200,1198.38,0.0,0.021,0.098,18.413, NaN, NaN,23.633,   NaN,17.44,1012.54,94.36,17.44,43.8,40.1,8.3,3.9,328.3,17.4,5.8,3.6,NaN, NaN,22.0,243.6,237.9,1153527381,1153527380,2,10.7,000981,000980,243.6,33.183653,-123.143370,10.36,NaN,NaN,18.616, NaN,NaN,NaN, NaN, NaN
20060722,001651,1296990,33.182847,-123.145027,25.0,18.355,33.094,44.217,1202.84,0.0,0.023,0.100,18.430, NaN, NaN,23.630,   NaN,17.42,1012.49,94.40,17.41,42.8,41.1,8.1,3.5,328.7,23.5,5.5,3.6,NaN, NaN,21.0,243.8,238.0,1153527411,1153527410,2,10.7,001011,001010,243.8,33.182893,-123.144868,10.45,NaN,NaN,18.632, NaN,NaN,NaN, NaN, NaN
20060722,001721,1297020,33.182078,-123.146532,25.1,18.387,33.091,44.244,1147.27,0.0,0.023,0.099,18.442, NaN, NaN,23.620,   NaN,17.45,1012.54,94.41,17.44,42.0,43.2,7.9,3.4,329.4,25.7,5.3,3.8,NaN, NaN,18.0,243.3,237.9,1153527441,1153527440,2,10.5,001041,001040,243.3,33.182130,-123.146373,10.49,NaN,NaN,18.664, NaN,NaN,NaN, NaN, NaN
20060722,001751,1297051,33.181317,-123.148038,25.4,18.411,33.091,44.266,1072.83,0.0,0.021,0.096,18.444, NaN, NaN,23.613,   NaN,17.47,1012.47,94.47,17.46,44.9,46.8,7.6,3.1,334.7,29.9,5.4,4.1,NaN, NaN,18.0,243.3,240.2,1153527471,1153527470,2,10.4,001071,001070,243.3,33.181363,-123.147880,10.55,NaN,NaN,18.688, NaN,NaN,NaN, NaN, NaN
20060722,001821,1297081,33.180553,-123.149553,25.3,18.400,33.101,44.267,1091.11,0.0,0.019,0.093,18.445, NaN, NaN,23.624,   NaN,17.42,1012.57,94.39,17.42,46.4,48.6,7.4,3.1,338.0,28.8,5.4,4.1,NaN, NaN,18.0,243.6,239.9,1153527501,1153527500,2,10.7,001101,001100,243.6,33.180602,-123.149392,10.40,NaN,NaN,18.677, NaN,NaN,NaN, NaN, NaN
20060722,001852,1297111,33.179765,-123.151113,25.1,18.386,33.106,44.261,1148.61,0.0,0.021,0.097,18.446, NaN, NaN,23.632,   NaN,17.47,1012.56,94.55,17.47,44.0,43.2,7.6,3.7,333.9,20.8,5.3,3.8,NaN, NaN,18.0,244.3,238.0,1153527532,1153527531,2,10.7,001132,001131,244.3,33.179813,-123.150947,10.28,NaN,NaN,18.663, NaN,NaN,NaN, NaN, NaN
20060722,001922,1297142,33.179037,-123.152643,25.3,18.378,33.109,44.256,1231.02,0.0,0.021,0.098,18.454, NaN, NaN,23.635,   NaN,17.53,1012.53,94.59,17.50,40.1,37.3,8.2,4.3,325.4,11.9,5.4,3.4,NaN, NaN,18.0,243.8,243.3,1153527562,1153527561,2,10.6,001162,001161,243.8,33.179082,-123.152477,10.43,NaN,NaN,18.655, NaN,NaN,NaN, NaN, NaN
20060722,001951,1297170,33.178290,-123.154083,25.3,18.403,33.101,44.272,1305.34,0.0,0.023,0.101,18.457, NaN, NaN,23.624,   NaN,17.48,1012.43,94.44,17.48,41.3,40.0,8.6,4.3,323.8,11.6,5.8,3.6,NaN, NaN,20.0,244.3,239.4,1153527591,1153527590,2,10.5,001191,001190,244.3,33.178348,-123.153918,10.29,NaN,NaN,18.680, NaN,NaN,NaN, NaN, NaN
20060722,002021,1297200,33.177553,-123.155587,25.0,18.406,33.109,44.283,1499.80,0.0,0.021,0.102,18.462, NaN, NaN,23.629,   NaN,17.47,1012.50,94.41,17.47,44.2,45.0,8.3,3.6,329.2,22.0,5.8,3.9,NaN, NaN,21.0,244.6,238.2,1153527621,1153527620,2,10.6,001221,001220,244.6,33.177600,-123.155422,10.33,NaN,NaN,18.683, NaN,NaN,NaN, NaN, NaN
20060722,002051,1297231,33.176795,-123.157088,24.9,18.408,33.111,44.288,1772.34,0.0,0.019,0.103,18.470, NaN, NaN,23.630,   NaN,17.47,1012.51,94.36,17.46,41.0,40.8,8.5,4.1,324.4,13.5,5.7,3.6,NaN, NaN,20.0,243.4,233.8,1153527651,1153527650,2,10.6,001251,001250,243.4,33.176848,-123.156927,10.46,NaN,NaN,18.685, NaN,NaN,NaN, NaN, NaN
20060722,002121,1297260,33.176060,-123.158600,25.1,18.420,33.111,44.298,1420.61,0.0,0.020,0.099,18.479, NaN, NaN,23.627,   NaN,17.47,1012.55,94.26,17.46,38.5,35.4,8.8,5.0,319.0,358.4,5.7,3.3,NaN, NaN,20.0,243.4,240.2,1153527681,1153527680,2,10.4,001281,001280,243.4,33.176108,-123.158438,10.41,NaN,NaN,18.697, NaN,NaN,NaN, NaN, NaN
20060722,002152,1297292,33.175273,-123.160152,25.2,18.427,33.113,44.308,1215.66,0.0,0.020,0.096,18.486, NaN, NaN,23.626,   NaN,17.47,1012.54,94.33,17.47,39.4,35.2,8.6,5.0,321.4,358.6,5.6,3.2,NaN, NaN,20.0,243.5,236.5,1153527712,1153527711,2,10.7,001312,001311,243.5,33.175333,-123.159990,10.43,NaN,NaN,18.704, NaN,NaN,NaN, NaN, NaN
20060722,002221,1297320,33.174597,-123.161628,25.2,18.430,33.113,44.311,1261.67,0.0,0.019,0.095,18.500, NaN, NaN,23.626,   NaN,17.44,1012.56,94.29,17.44,37.7,33.6,9.0,5.2,317.7,355.0,5.8,3.1,NaN, NaN,21.0,245.9,244.2,1153527741,1153527740,2,10.4,001341,001340,245.9,33.174638,-123.161463,10.50,NaN,NaN,18.707, NaN,NaN,NaN, NaN, NaN
20060722,002251,1297350,33.173877,-123.163162,25.1,18.454,33.110,44.331,1262.53,0.0,0.020,0.097,18.513, NaN, NaN,23.617,   NaN,17.46,1012.55,94.25,17.46,35.5,32.4,9.4,5.6,313.4,348.4,6.0,3.2,NaN, NaN,20.0,246.8,242.9,1153527771,1153527770,2,10.8,001371,001370,246.8,33.173912,-123.162995,10.53,NaN,NaN,18.731, NaN,NaN,NaN, NaN, NaN
20060722,002321,1297381,33.173140,-123.164693,25.1,18.480,33.111,44.356,1053.55,0.0,0.020,0.094,18.526, NaN, NaN,23.612,   NaN,17.41,1012.59,94.15,17.41,35.5,32.1,9.6,6.2,312.5,339.7,6.1,3.3,NaN, NaN,20.0,246.1,235.0,1153527801,1153527800,2,10.9,001401,001400,246.1,33.173192,-123.164538,10.48,NaN,NaN,18.758, NaN,NaN,NaN, NaN, NaN
20060722,002351,1297411,33.172453,-123.166240,25.4,18.499,33.112,44.376,932.76,0.0,0.020,0.092,18.537, NaN, NaN,23.608,   NaN,17.40,1012.56,94.12,17.39,40.3,37.9,8.8,5.6,323.8,351.7,5.9,3.7,NaN, NaN,21.0,245.8,243.3,1153527831,1153527830,2,10.5,001431,001430,245.8,33.172500,-123.166087,10.54,NaN,NaN,18.777, NaN,NaN,NaN, NaN, NaN
20060722,002421,1297440,33.171762,-123.167780,25.1,18.496,33.116,44.378,920.69,0.0,0.019,0.091,18.544, NaN, NaN,23.611,   NaN,17.34,1012.56,94.27,17.34,45.5,45.4,7.6,3.8,337.9,21.9,5.5,4.0,NaN, NaN,20.0,246.3,243.0,1153527861,1153527860,2,10.6,001461,001460,246.3,33.171795,-123.167625,10.43,NaN,NaN,18.774, NaN,NaN,NaN, NaN, NaN
20060722,002451,1297470,33.171050,-123.169312,25.3,18.511,33.114,44.391,903.97,0.0,0.021,0.094,18.547, NaN, NaN,23.606,   NaN,17.39,1012.59,94.44,17.39,45.9,44.5,6.9,3.2,343.1,30.2,5.0,3.9,NaN, NaN,20.0,245.7,246.3,1153527891,1153527890,2,10.6,001491,001490,245.7,33.171085,-123.169163,10.41,NaN,NaN,18.789, NaN,NaN,NaN, NaN, NaN
20060722,002521,1297500,33.170347,-123.170833,25.3,18.498,33.117,44.381,923.28,0.0,0.021,0.094,18.545, NaN, NaN,23.612,   NaN,17.42,1012.63,94.48,17.41,41.3,37.6,7.2,4.0,335.5,17.3,4.8,3.4,NaN, NaN,20.0,245.3,240.4,1153527921,1153527920,2,10.7,001521,001520,245.3,33.170378,-123.170685,10.41,NaN,NaN,18.776, NaN,NaN,NaN, NaN, NaN
20060722,002551,1297530,33.169643,-123.172358,25.4,18.487,33.120,44.374,931.53,0.0,0.021,0.094,18.549, NaN, NaN,23.617,   NaN,17.47,1012.61,94.56,17.47,40.7,34.7,7.5,4.1,332.8,16.4,4.9,3.1,NaN, NaN,19.0,245.7,240.2,1153527951,1153527950,2,10.5,001551,001550,245.6,33.169668,-123.172210,10.48,NaN,NaN,18.765, NaN,NaN,NaN, NaN, NaN
20060722,002621,1297561,33.168945,-123.173903,25.1,18.490,33.120,44.377,890.61,0.0,0.023,0.095,18.549, NaN, NaN,23.616,   NaN,17.42,1012.59,94.50,17.42,41.6,35.1,7.6,4.1,333.3,17.3,5.1,3.1,NaN, NaN,18.0,246.1,242.1,1153527981,1153527980,2,10.8,001581,001580,246.1,33.168968,-123.173750,10.48,NaN,NaN,18.768, NaN,NaN,NaN, NaN, NaN
20060722,002651,1297591,33.168242,-123.175440,25.3,18.494,33.118,44.378,878.26,0.0,0.023,0.095,18.553, NaN, NaN,23.613,   NaN,17.44,1012.59,94.56,17.44,42.2,38.0,7.3,3.8,336.7,21.4,5.0,3.4,NaN, NaN,18.0,245.4,240.6,1153528011,1153528010,2,10.6,001611,001610,245.4,33.168268,-123.175290,10.50,NaN,NaN,18.772, NaN,NaN,NaN, NaN, NaN
20060722,002721,1297620,33.167555,-123.176980,25.2,18.502,33.118,44.386,964.78,0.0,0.021,0.095,18.561, NaN, NaN,23.611,   NaN,17.44,1012.54,94.63,17.44,39.7,36.2,7.3,4.3,333.7,11.5,4.7,3.3,NaN, NaN,18.0,246.3,245.0,1153528041,1153528040,2,10.7,001641,001640,246.3,33.167567,-123.176830,10.43,NaN,NaN,18.780, NaN,NaN,NaN, NaN, NaN
20060722,002752,1297652,33.166825,-123.178558,25.1,18.520,33.116,44.402,1090.93,0.0,0.021,0.096,18.577, NaN, NaN,23.606,   NaN,17.45,1012.53,94.56,17.45,35.6,31.8,8.7,5.7,318.8,347.0,5.3,3.1,NaN, NaN,17.0,245.8,243.6,1153528072,1153528071,2,10.4,001672,001671,245.8,33.166838,-123.178410,10.49,NaN,NaN,18.799, NaN,NaN,NaN, NaN, NaN
20060722,002822,1297681,33.166128,-123.180088,25.2,18.540,33.116,44.422,1147.00,0.0,0.021,0.097,18.590, NaN, NaN,23.601,   NaN,17.45,1012.61,94.58,17.45,33.3,29.3,9.5,6.6,310.1,329.5,5.8,3.3,NaN, NaN,17.0,245.8,245.3,1153528102,1153528101,2,10.3,001702,001701,245.8,33.166143,-123.179942,10.44,NaN,NaN,18.819, NaN,NaN,NaN, NaN, NaN
20060722,002852,1297711,33.165417,-123.181608,25.1,18.559,33.118,44.441,955.36,0.0,0.023,0.096,18.606, NaN, NaN,23.597,   NaN,17.45,1012.56,94.51,17.45,30.8,26.9,9.4,7.1,307.0,320.6,5.5,3.3,NaN, NaN,18.0,245.8,236.5,1153528132,1153528131,2,10.6,001732,001731,245.8,33.165440,-123.181465,10.35,NaN,NaN,18.838, NaN,NaN,NaN, NaN, NaN
20060722,002921,1297741,33.164753,-123.183087,25.3,18.570,33.118,44.453,872.32,0.0,0.020,0.092,18.624, NaN, NaN,23.595,   NaN,17.43,1012.51,94.51,17.43,32.1,27.3,9.2,7.1,310.1,320.8,5.5,3.4,NaN, NaN,19.0,245.9,242.8,1153528161,1153528160,2,10.4,001761,001760,245.9,33.164785,-123.182942,10.37,NaN,NaN,18.849, NaN,NaN,NaN, NaN, NaN
20060722,002951,1297770,33.164053,-123.184598,25.3,18.584,33.117,44.465,885.26,0.0,0.020,0.092,18.632, NaN, NaN,23.590,   NaN,17.40,1012.53,94.50,17.39,32.4,27.2,9.1,7.1,311.2,319.8,5.4,3.4,NaN, NaN,19.0,246.8,243.3,1153528191,1153528190,2,10.5,001791,001790,246.8,33.164078,-123.184460,10.31,NaN,NaN,18.863, NaN,NaN,NaN, NaN, NaN
20060722,003021,1297800,33.163343,-123.186127,25.1,18.599,33.120,44.483,930.04,0.0,0.020,0.092,18.652, NaN, NaN,23.589,   NaN,17.40,1012.53,94.56,17.40,33.4,28.3,9.1,6.8,312.3,325.5,5.5,3.3,NaN, NaN,18.0,246.1,240.7,1153528221,1153528220,2,10.6,001821,001820,246.1,33.163365,-123.185985,10.46,NaN,NaN,18.878, NaN,NaN,NaN, NaN, NaN
20060722,003051,1297830,33.162645,-123.187668,25.1,18.624,33.118,44.504,1028.46,0.0,0.020,0.094,18.670, NaN, NaN,23.581,   NaN,17.41,1012.54,94.63,17.41,36.8,30.7,8.6,6.2,320.4,338.2,5.4,3.2,NaN, NaN,18.0,245.7,246.7,1153528251,1153528250,2,10.5,001851,001850,245.7,33.162660,-123.187522,10.40,NaN,NaN,18.903, NaN,NaN,NaN, NaN, NaN
20060722,003121,1297860,33.161898,-123.189188,25.0,18.653,33.116,44.529,1274.66,0.0,0.020,0.097,18.690, NaN, NaN,23.572,   NaN,17.41,1012.53,94.72,17.42,40.0,34.3,8.0,5.2,328.1,356.2,5.2,3.3,NaN, NaN,17.0,247.5,235.1,1153528281,1153528280,2,10.8,001881,001880,247.5,33.161923,-123.189045,10.45,NaN,NaN,18.932, NaN,NaN,NaN, NaN, NaN
20060722,003151,1297891,33.161225,-123.190747,25.0,18.669,33.120,44.550,1763.11,0.0,0.021,0.106,18.702, NaN, NaN,23.571,   NaN,17.46,1012.51,94.77,17.46,39.9,35.1,8.3,4.7,326.6,6.0,5.5,3.2,NaN, NaN,17.0,246.1,238.3,1153528310,1153528310,2,10.6,001911,001910,246.1,33.161247,-123.190600,10.43,NaN,NaN,18.948, NaN,NaN,NaN, NaN, NaN
20060722,003222,1297921,33.160513,-123.192342,25.2,18.682,33.120,44.562,1074.03,0.0,0.021,0.096,18.701, NaN, NaN,23.568,   NaN,17.44,1012.53,94.48,17.44,40.1,36.3,8.4,4.5,327.2,10.1,5.5,3.3,NaN, NaN,17.0,245.8,240.1,1153528342,1153528341,2,10.4,001942,001941,245.8,33.160535,-123.192192,10.39,NaN,NaN,18.961, NaN,NaN,NaN, NaN, NaN
20060722,003251,1297950,33.159878,-123.193788,25.3,18.657,33.127,44.546,932.76,0.0,0.018,0.089,18.691, NaN, NaN,23.579,   NaN,17.44,1012.43,94.55,17.44,45.1,41.5,7.5,3.9,338.6,20.3,5.4,3.6,NaN, NaN,17.0,247.1,245.2,1153528371,1153528370,2,10.7,001971,001970,247.1,33.159878,-123.193687,10.45,NaN,NaN,18.936, NaN,NaN,NaN, NaN, NaN
20060722,003321,1297980,33.159168,-123.195377,25.2,18.625,33.130,44.519,1019.57,0.0,0.019,0.092,18.680, NaN, NaN,23.589,   NaN,17.41,1012.48,94.56,17.42,50.4,52.1,7.1,3.1,347.2,31.6,5.5,4.3,NaN, NaN,18.0,247.4,244.2,1153528401,1153528400,2,10.5,002001,002000,247.4,33.159190,-123.195223,10.32,NaN,NaN,18.904, NaN,NaN,NaN, NaN, NaN
20060722,003351,1298010,33.158480,-123.196918,25.2,18.598,33.130,44.493,1020.73,0.0,0.020,0.094,18.665, NaN, NaN,23.596,   NaN,17.42,1012.58,94.58,17.43,53.8,61.4,6.6,2.7,353.7,36.7,5.6,4.8,NaN, NaN,18.0,246.4,239.4,1153528431,1153528430,2,10.6,002031,002030,246.4,33.158507,-123.196765,10.25,NaN,NaN,18.877, NaN,NaN,NaN, NaN, NaN
20060722,003422,1298041,33.157787,-123.198518,25.3,18.584,33.129,44.479,922.98,0.0,0.021,0.094,18.652, NaN, NaN,23.599,   NaN,17.43,1012.54,94.54,17.44,54.7,62.4,5.8,2.6,0.3,38.4,5.2,4.8,NaN, NaN,18.0,248.1,246.6,1153528462,1153528461,2,10.5,002062,002061,248.1,33.157803,-123.198365,10.20,NaN,NaN,18.863, NaN,NaN,NaN, NaN, NaN
20060722,003451,1298071,33.157137,-123.200027,25.3,18.574,33.126,44.466,901.87,0.0,0.021,0.094,18.644, NaN, NaN,23.600,   NaN,17.45,1012.56,94.48,17.45,52.6,59.3,6.0,2.1,358.3,44.4,5.1,4.7,NaN, NaN,18.0,248.2,244.9,1153528491,1153528490,2,10.4,002091,002090,248.2,33.157153,-123.199872,10.42,NaN,NaN,18.853, NaN,NaN,NaN, NaN, NaN
20060722,003521,1298101,33.156473,-123.201597,25.2,18.569,33.126,44.461,888.03,0.0,0.020,0.092,18.643, NaN, NaN,23.601,   NaN,17.41,1012.52,94.44,17.40,51.5,54.2,6.2,2.0,356.2,47.6,5.1,4.6,NaN, NaN,18.0,247.9,244.8,1153528521,1153528520,2,10.9,002121,002120,247.9,33.156485,-123.201440,10.35,NaN,NaN,18.848, NaN,NaN,NaN, NaN, NaN
20060722,003551,1298130,33.155808,-123.203158,25.2,18.576,33.124,44.465,871.09,0.0,0.021,0.093,18.636, NaN, NaN,23.597,   NaN,17.48,1012.52,94.54,17.49,48.9,47.5,6.3,2.1,353.3,46.5,4.9,4.3,NaN, NaN,19.0,248.1,242.6,1153528551,1153528550,2,10.4,002151,002150,248.1,33.155833,-123.203000,10.32,NaN,NaN,18.855, NaN,NaN,NaN, NaN, NaN